Tracking 20710 objects as of 30-May-2020
HD Live streaming from Space Station
objects crossing your sky now

FLOCK 3P 75

Track FLOCK 3P 75 now!
10-day predictions
FLOCK 3P 75 is classified as:


NORAD ID: 41979
Int'l Code: 2017-008AH
Perigee: 487.2 km
Apogee: 498.1 km
Inclination: 97.4 °
Period: 94.3 minutes
Semi major axis: 6863 km
RCS: Unknown
Launch date: February 15, 2017
Source: United States (US)
Launch site: SRIHARIKOTA (SRI)
aabbcc
Your satellite tracking list
Your tracking list is empty




NASA's NSSDC Master Catalog

Two Line Element Set (TLE):
1 41979U 17008AH  20150.71724379 +.00001963 +00000-0 +77337-4 0  9994
2 41979 097.3686 219.1052 0007941 017.3524 342.7985 15.26769242182726
Source of the keplerian elements: AFSPC